Lid_Strength_Index
1 6 7 8 11 12 15 12 10 10 9 7 6 7 8 7 8 11 3 1 1 1 -0 -0 -1 -1 -1 -1 -1 -1 -1 -1 -1 -1 -1 -1 -1 -1 -1 -1 -1 -1 -1 -1 -1 -1 -1 -1 -1
4 6 8 11 14 16 14 12 11 10 7 5 6 6 7 8 4 5 4 1 0 0 -0 -0 -1 -1 -1 -1 -1 -1 -1 -1 -1 -1 -1 -1 -1 -1 -1 -1 -1 -1 -1 -1 -1 -1 -1 -1 -1
4 7 11 13 15 16 14 11 9 8 6 7 7 5 6 6 4 4 2 1 0 0 -0 -0 -1 -1 -1 -1 -1 -1 -1 -1 -1 -1 -1 -1 -1 -1 -1 -1 -1 -1 -1 -1 -1 -1 -1 -1 -1
6 9 11 14 15 13 11 11 10 9 8 6 6 8 5 3 3 2 1 1 1 0 -0 -0 -1 -1 -1 -1 -1 -1 -1 -1 -1 -1 -1 -1 -1 -1 -1 -1 -1 -1 -1 -1 -1 -1 -1 -1 -1
7 10 15 16 14 12 10 9 9 10 9 8 6 8 7 3 1 1 1 1 1 1 0 -0 -1 -1 -1 -1 -1 -1 -1 -1 -1 -1 -1 -1 -1 -1 -1 -1 -1 -1 -1 -1 -1 -1 -1 -1 -1
9 10 15 17 15 12 10 10 10 9 8 8 7 7 7 3 3 2 1 1 0 1 0 0 -1 -1 -1 -1 -1 -1 -1 -1 -1 -1 -1 -1 -1 -1 -1 -1 -1 -1 -1 -1 -1 -1 -2 -2 -2
11 13 14 15 14 13 11 10 10 9 7 7 5 8 6 5 2 1 1 1 1 0 0 -0 -0 -0 -1 -1 -1 -1 -1 -1 -1 -1 -1 -1 -1 -1 -1 -1 -1 -2 -1 -1 -1 -1 -2 -2 -2
10 12 14 13 14 14 10 10 10 8 8 5 4 8 8 4 2 2 1 1 1 1 0 0 -0 -0 0 0 -1 -1 -1 -1 -1 -1 -1 -1 -1 -1 -1 -1 -1 -2 -2 -1 -1 -1 -1 -1 -1
9 14 15 13 12 12 10 11 8 6 6 7 6 6 4 3 2 2 3 2 2 1 1 1 0 -0 0 0 -0 -1 -1 -1 -1 -1 -1 -0 0 0 -0 -1 -1 -1 -2 -2 -2 -1 -1 -1 -1
12 16 14 11 10 10 8 9 8 7 7 8 6 4 3 4 3 4 4 4 3 2 1 1 0 1 0 -0 -0 0 -0 0 0 0 0 0 1 1 -0 -1 -1 -1 -2 -2 -2 -2 -2 -1 0
13 15 12 11 8 8 8 8 8 9 10 8 7 6 4 4 4 4 4 3 3 2 1 1 0 0 1 0 0 -0 0 -0 0 0 1 1 0 1 0 1 0 1 -1 0 -0 0 0 1 0
14 12 11 10 8 9 8 7 7 7 9 6 5 4 4 5 5 4 4 3 3 3 2 2 2 1 1 1 -0 0 0 0 -0 0 0 1 1 1 0 0 0 0 0 0 0 0 0 0 0
13 12 10 9 8 10 7 8 7 7 7 6 5 4 5 5 4 3 3 2 3 3 2 2 2 3 3 1 1 1 1 1 0 1 0 1 1 1 0 0 0 0 0 1 1 1 2 2 1
12 11 10 10 10 9 10 9 7 7 6 7 6 5 5 5 5 4 3 3 3 3 2 1 1 2 2 2 2 2 2 1 1 1 0 0 0 0 0 0 1 1 0 1 1 2 2 2 2
11 14 12 10 11 11 8 9 9 6 6 7 7 5 5 4 4 4 3 3 2 2 1 1 1 1 0 1 2 2 1 1 1 0 0 -0 0 0 0 0 1 1 1 1 2 3 2 2 1
13 14 16 13 11 10 8 13 9 5 6 7 7 7 5 5 4 3 3 2 2 2 2 1 1 1 1 0 0 1 1 0 0 -0 0 -0 -0 -0 0 0 0 1 1 1 1 2 3 3 3
16 18 17 14 11 10 10 14 9 6 6 7 7 8 7 6 5 5 3 2 2 2 2 1 1 1 1 1 0 0 1 1 1 -0 1 1 1 1 1 2 0 0 1 2 2 3 4 4 4
18 17 16 15 12 10 11 11 8 7 7 7 7 7 7 6 6 4 3 2 2 2 1 1 1 1 1 1 1 1 1 1 0 0 0 1 1 1 1 1 0 0 3 3 4 4 5 5 4
14 15 15 14 11 10 11 11 9 7 7 7 7 7 7 6 5 5 3 2 3 2 2 2 2 1 1 3 3 3 2 1 1 1 -0 0 1 1 1 1 1 1 3 3 3 3 4 5 3
14 16 15 13 11 10 11 11 9 8 8 7 7 7 6 6 6 5 3 3 3 4 3 2 2 1 2 3 3 2 2 1 1 0 1 1 1 1 1 1 1 2 3 3 3 4 4 4 2
14 15 15 13 10 10 11 13 12 9 8 7 7 6 6 6 6 6 4 4 3 3 3 2 2 2 2 3 3 2 1 1 2 1 1 1 0 1 1 1 1 1 2 2 2 3 3 3 3
15 12 12 11 13 16 11 18 13 11 9 8 7 7 6 6 6 5 5 4 3 3 3 2 2 2 2 3 2 2 3 3 2 2 1 1 1 0 1 1 1 1 1 2 2 2 2 3 4
14 11 11 11 13 14 15 17 14 11 11 9 8 7 6 6 5 5 5 5 3 2 3 3 3 3 3 2 2 2 3 2 3 3 2 2 1 1 1 1 1 1 2 2 2 2 3 3 4
10 11 12 12 13 18 14 15 15 12 10 9 8 7 6 6 5 5 5 6 7 3 2 2 2 2 3 2 2 2 3 3 3 3 3 2 2 2 1 1 1 1 2 2 3 3 2 3 4
10 14 19 19 19 19 13 15 13 10 9 9 8 7 6 6 5 6 7 5 4 5 3 2 3 4 2 2 2 2 2 3 3 3 2 3 3 2 2 2 3 2 2 3 3 4 4 4 4
13 14 19 21 20 18 12 16 13 10 9 8 8 7 7 6 7 6 4 4 4 3 3 3 3 3 3 3 4 5 4 4 4 4 4 4 4 4 3 3 3 3 2 3 4 5 4 4 4
13 15 13 15 15 17 16 14 11 9 8 7 9 8 8 7 6 5 5 4 4 4 3 3 4 5 6 5 5 5 5 5 5 5 4 4 4 2 3 2 3 3 3 3 4 4 4 3 3
11 10 15 16 20 21 17 16 15 12 11 9 10 9 7 6 6 5 5 6 6 6 6 6 5 6 5 5 4 5 5 5 5 5 5 5 5 4 4 4 3 3 3 3 3 3 3 3 3
14 14 13 13 15 19 20 16 12 12 10 9 9 8 7 7 6 6 6 6 7 6 6 5 5 5 5 5 5 6 6 7 7 6 6 6 6 6 5 4 4 4 4 4 4 4 2 2 2
12 13 12 16 17 17 17 17 10 9 9 8 8 7 7 6 6 6 6 7 7 7 7 7 6 6 7 7 7 7 7 7 7 6 6 5 5 4 4 4 4 4 4 5 5 5 4 4 4